[[{"header":{"parameterUnit":"m.s-1","parameterCategory":1,"la1":30.2991,"la2":30.254,"lo1":-89.0895,"lo2":-89.0444,"dy":0.0017,"dx":0.0017,"nx":28,"ny":28,"refTime":"2023-08-02T21:00:00:Z","depth":0,"parameterNumber":2,"parameterNumberName":"U-component_of_WINDS"},"data":[0,0,0,0,0,0,0,0,0,0,0,0,0,0,0,0,0,0,0,0,0,0,0,0,0,0,0,0,0,0,0,0,0,0,0,0,0,0,0,0,0,0,0,0,0,0,0,0,0,0,0,0,0,0,0,0,0,0,2.1665,2.1665,0,2.1677,2.1677,2.1677,2.1612,2.161,2.1608,2.1606,2.162,2.1622,2.1624,0,0,0,0,0,0,0,0,0,0,0,0,0,2.1584,2.1586,2.1665,2.1665,2.1665,2.1677,2.1677,2.1677,2.1612,2.161,2.1607,2.1605,2.1619,2.1622,2.1624,0,0,0,0,0,0,0,0,0,0,0,0,0,2.161,2.1586,2.1665,2.1634,2.1631,2.1677,2.1677,2.1677,2.1613,2.161,2.1607,2.1604,2.1618,2.1622,2.1625,2.1701,0,0,2.1634,2.1636,0,0,0,0,0,0,0,0,2.1609,2.1613,2.1638,2.1636,2.1633,2.164,2.1654,2.1685,2.1613,2.162,2.1606,2.1603,2.1629,2.1631,2.164,2.1702,2.1702,2.1635,2.1637,2.1638,2.1639,0,0,0,0,0,0,0,2.1607,2.1612,2.167,2.1639,2.1636,2.1619,2.162,2.1659,2.164,2.1619,2.1614,2.1616,2.1627,2.1637,2.164,2.1703,2.1635,2.1637,2.1639,2.1641,2.1824,2.1827,0,0,0,0,0,0,2.1609,2.1611,2.1669,2.167,2.1614,2.1623,2.1624,2.1641,2.164,2.1637,2.1619,2.1613,2.1633,2.1636,2.164,2.1726,2.1638,2.1641,2.1643,2.1821,2.1824,2.1828,0,0,0,0,0,0,2.1608,2.1615,2.1669,2.1639,2.1645,2.1627,2.1647,2.1642,2.1652,2.1639,2.1636,2.1632,2.1631,2.1635,2.1685,2.1726,2.1642,2.1645,2.1817,2.1822,2.1826,2.1901,0,0,0,0,0,0,2.1606,2.1615,2.1644,2.164,2.1647,2.1715,2.165,2.1645,2.1657,2.165,2.1651,2.1648,2.1629,2.1681,2.1689,2.1728,2.1648,2.1814,2.1819,2.1825,2.1895,2.1907,2.1918,0,0,0,0,0,2.1603,2.1666,2.1646,2.1653,2.1683,2.1717,2.1721,2.1696,2.1661,2.169,2.1681,2.1648,2.1721,2.1687,2.1695,2.1736,2.1811,2.1818,2.1824,2.1889,2.1905,2.1918,0,0,0,0,0,0,2.1676,2.1665,2.1643,2.1706,2.1713,2.1706,2.1742,2.1714,2.1731,2.1724,2.1693,2.1694,2.1749,2.1748,2.171,2.1808,2.1759,2.1768,2.1806,2.1821,2.1832,2.183,2.165,0,0,0,0,0,2.17,2.1728,2.1717,2.1774,2.1779,2.176,2.1774,2.1754,2.176,2.1763,2.1758,2.1765,2.1789,2.1805,2.1827,2.1895,2.1892,2.1927,2.1939,2.1949,2.1956,2.1988,2.2002,2.1849,2.1849,2.1849,0,0,2.1749,2.1746,2.1766,2.1789,2.1792,2.1821,2.1763,2.1797,2.1818,2.1768,2.1814,2.1811,2.1817,2.1875,2.1901,2.1876,2.1997,2.1957,2.1965,2.1967,2.1996,2.2011,2.2024,2.1854,2.1853,2.1852,0,0,2.1852,2.1854,2.19,2.1903,2.1908,2.1894,2.1905,2.1902,2.1897,2.1943,2.1905,2.193,2.1972,2.1977,2.1985,2.2087,2.2056,2.2095,2.2155,2.2187,2.2199,2.221,2.2243,2.2256,2.2103,2.2103,2.2103,0,2.1912,2.1955,2.1927,2.1963,2.1973,2.1928,2.1973,2.1978,2.199,2.1997,2.197,2.2019,2.2021,2.2078,2.2102,2.2112,2.2121,2.2094,2.22,2.221,2.2219,2.225,2.2263,2.2107,2.2107,2.2106,2.2106,0,2.2027,2.2057,2.2093,2.2103,2.2118,2.2159,2.2136,2.2154,2.2133,2.2122,2.2168,2.2167,2.2186,2.2199,2.218,2.2252,2.2236,2.2205,2.2155,2.2239,2.2267,2.2279,2.2113,2.2112,2.2111,2.2109,0,0,2.2177,2.2169,2.2183,2.2185,2.2186,2.2208,2.2246,2.2263,2.2278,2.2287,2.2317,2.2353,2.2322,2.2331,2.2312,2.2341,2.2417,2.2305,2.2305,2.2323,2.2493,2.2515,2.2529,2.2398,2.24,2.2402,2.2492,0,2.2275,2.2338,2.2313,2.2378,2.2403,2.236,2.2392,2.2396,2.2387,2.2407,2.2397,2.2421,2.2381,2.2386,2.2412,2.2402,2.245,2.2396,2.2423,2.2424,2.242,2.2545,2.2568,2.2653,2.2503,2.2505,2.2507,0,2.2398,2.241,2.2477,2.2469,2.2479,2.2509,2.252,2.2541,2.2543,2.2534,2.2543,2.2517,2.2552,2.2504,2.2551,2.2514,2.2524,2.252,2.2523,2.2522,2.2468,2.2545,2.268,2.2692,2.2525,2.2523,2.2522,0,2.2496,2.253,2.2572,2.2577,2.257,2.2591,2.2589,2.2589,2.26,2.2611,2.2617,2.2633,2.2641,2.2653,2.2631,2.2598,2.268,2.2631,2.2671,2.2672,2.2689,2.2687,2.2824,2.27,2.27,2.27,2.27,0,2.2607,2.2649,2.2616,2.2642,2.2687,2.2658,2.2703,2.2697,2.2696,2.2719,2.2684,2.2707,2.2678,2.2698,2.2681,2.272,2.2725,2.2718,2.2712,2.2719,2.272,2.2723,2.2715,2.2703,2.2702,2.2702,2.2701,0,2.2724,2.2704,2.2747,2.2736,2.2735,2.2768,2.2758,2.2781,2.2769,2.2799,2.2805,2.2785,2.2806,2.2786,2.2807,2.2795,2.2847,2.2835,2.2846,2.2841,2.2882,2.2877,2.3023,2.304,2.2908,2.2909,2.291,0,2.2795,2.2825,2.2816,2.2829,2.2829,2.285,2.286,2.2832,2.2844,2.2847,2.287,2.2888,2.29,2.2936,2.2923,2.2938,2.2924,2.2974,2.2926,2.2931,2.2921,2.2918,2.2919,2.2984,2.2985,2.2986,2.2987,0,2.2921,2.2908,2.2924,2.2935,2.2947,2.2955,2.2961,2.2973,2.2944,2.2959,2.2979,2.2989,2.3009,2.3026,2.3037,2.3034,2.3005,2.3003,2.3012,2.3018,2.3022,2.3017,2.2869,2.2999,2.2998,2.2997,2.2997,2.2996,2.3014,2.3038,2.3034,2.3052,2.3052,2.3057,2.3077,2.3066,2.3082,2.3095,2.3078,2.3102,2.3101,2.3112,2.3113,2.3131,2.311,2.3125,2.3128,2.3131,2.3135,2.3022,2.3134,2.3133,2.3133,2.3133,2.3132,0,2.3135,2.313,2.3147,2.3154,2.3167,2.3138,2.3142,2.3154,2.3176,2.3177,2.3189,2.3211,2.3227,2.3215,2.3228,2.3244,2.3231,2.3249,2.3246,2.3245,2.3156,2.3144,2.3259,2.3259,2.3259,2.3259,2.3259,2.3259,2.32,2.3237,2.3224,2.326,2.3255,2.3277,2.3281,2.3285,2.3285,2.331,2.3323,2.3314,2.331,2.3322,2.3334,2.333,2.3335,2.3357,2.3348,2.3264,2.3252,2.324,2.3229,2.3359,2.3359,2.3435,2.3436,2.3436]},{"header":{"parameterUnit":"m.s-1","parameterCategory":1,"la1":30.2991,"la2":30.254,"lo1":-89.0895,"lo2":-89.0444,"dy":0.0017,"dx":0.0017,"nx":28,"ny":28,"refTime":"2023-08-02T21:00:00:Z","depth":0,"parameterNumber":3,"parameterNumberName":"V-component_of_WINDS"},"data":[0,0,0,0,0,0,0,0,0,0,0,0,0,0,0,0,0,0,0,0,0,0,0,0,0,0,0,0,0,0,0,0,0,0,0,0,0,0,0,0,0,0,0,0,0,0,0,0,0,0,0,0,0,0,0,0,0,0,0.2521,0.2522,0,0.2642,0.2643,0.2644,0.2666,0.2665,0.2664,0.2663,0.2787,0.2791,0.2795,0,0,0,0,0,0,0,0,0,0,0,0,0,0.2307,0.2311,0.2521,0.2522,0.2524,0.2641,0.2643,0.2645,0.2666,0.2665,0.2664,0.2663,0.2786,0.2791,0.2796,0,0,0,0,0,0,0,0,0,0,0,0,0,0.2411,0.2313,0.252,0.2549,0.2552,0.2641,0.2643,0.2645,0.2666,0.2665,0.2663,0.2662,0.2784,0.279,0.2796,0.2865,0,0,0.2816,0.2818,0,0,0,0,0,0,0,0,0.2405,0.2419,0.2543,0.2547,0.2551,0.2637,0.2613,0.2719,0.2667,0.2623,0.2663,0.2661,0.2738,0.2748,0.2774,0.2871,0.2877,0.2816,0.282,0.2823,0.2825,0,0,0,0,0,0,0,0.2398,0.2414,0.2569,0.2545,0.255,0.2555,0.2568,0.2633,0.2688,0.2627,0.2629,0.2643,0.274,0.2768,0.2777,0.2878,0.2816,0.2822,0.2826,0.2828,0.3036,0.3038,0,0,0,0,0,0,0.2386,0.2408,0.2565,0.2572,0.2473,0.256,0.2575,0.2611,0.2687,0.2697,0.2644,0.2643,0.2758,0.277,0.2782,0.2867,0.2823,0.2829,0.2832,0.3034,0.3036,0.3038,0,0,0,0,0,0,0.2381,0.24,0.256,0.2491,0.2511,0.2565,0.2606,0.2614,0.2642,0.27,0.271,0.2662,0.2757,0.2773,0.2844,0.2871,0.2832,0.2837,0.3032,0.3035,0.3037,0.3038,0,0,0,0,0,0,0.2375,0.2398,0.2425,0.2491,0.2515,0.2621,0.2608,0.2618,0.2653,0.2653,0.272,0.2729,0.2757,0.2834,0.285,0.2879,0.2842,0.303,0.3033,0.3036,0.3036,0.304,0.3044,0,0,0,0,0,0.2367,0.2421,0.2427,0.2445,0.255,0.2622,0.2636,0.2667,0.2655,0.2683,0.2719,0.2727,0.2866,0.2842,0.286,0.2891,0.3029,0.3032,0.3036,0.3034,0.3039,0.3044,0,0,0,0,0,0,0.2358,0.243,0.2437,0.2514,0.2562,0.2626,0.2662,0.2672,0.2724,0.2722,0.2758,0.2773,0.2842,0.2874,0.2846,0.2961,0.2946,0.2954,0.2938,0.2944,0.2948,0.2939,0.2848,0,0,0,0,0,0.2365,0.2417,0.2478,0.2539,0.2563,0.2608,0.264,0.266,0.2711,0.2731,0.2773,0.2822,0.2877,0.2912,0.2965,0.304,0.3054,0.307,0.3074,0.3077,0.3084,0.3124,0.3132,0.3051,0.3051,0.3051,0,0,0.238,0.2425,0.2457,0.2538,0.2578,0.2631,0.2625,0.2682,0.2721,0.274,0.281,0.2842,0.2899,0.2971,0.3006,0.3,0.3109,0.3082,0.3084,0.3089,0.3129,0.3137,0.3143,0.3054,0.3053,0.3053,0,0,0.2434,0.2474,0.2529,0.2568,0.2627,0.2657,0.2669,0.2732,0.2754,0.2824,0.2839,0.2886,0.2979,0.3018,0.3051,0.3117,0.3126,0.3133,0.3155,0.3194,0.32,0.3206,0.3229,0.3237,0.3139,0.3139,0.3139,0,0.2445,0.2526,0.2556,0.2612,0.2647,0.2665,0.2721,0.2757,0.2831,0.2855,0.2847,0.2963,0.3002,0.3084,0.31,0.3126,0.3141,0.3126,0.3197,0.3203,0.3209,0.3231,0.324,0.3139,0.3139,0.3139,0.3139,0,0.2536,0.2591,0.2629,0.2698,0.2738,0.2793,0.2832,0.2867,0.2882,0.2912,0.2982,0.303,0.3093,0.3113,0.3129,0.3197,0.3191,0.319,0.3176,0.3217,0.3238,0.3247,0.314,0.314,0.314,0.314,0,0,0.2589,0.2674,0.2687,0.2718,0.2783,0.2827,0.2882,0.2943,0.2973,0.3022,0.3069,0.3146,0.3144,0.3181,0.3201,0.3235,0.3283,0.3229,0.3231,0.3238,0.336,0.3361,0.337,0.3289,0.3291,0.3292,0.3355,0,0.2651,0.2751,0.2779,0.2863,0.2914,0.2931,0.2979,0.3024,0.3052,0.3099,0.3131,0.3185,0.3179,0.3201,0.3235,0.327,0.3308,0.3266,0.3333,0.3335,0.3319,0.3382,0.3383,0.344,0.3363,0.3365,0.3366,0,0.2737,0.2787,0.2876,0.2933,0.2956,0.2999,0.3056,0.31,0.3151,0.3169,0.3209,0.3225,0.3283,0.3264,0.3343,0.3314,0.3342,0.3363,0.3366,0.3374,0.3353,0.3391,0.3459,0.3468,0.338,0.3378,0.3377,0,0.2767,0.2856,0.2921,0.2947,0.3016,0.3045,0.3075,0.3124,0.3158,0.3207,0.323,0.3285,0.3315,0.3357,0.3388,0.3372,0.3464,0.3449,0.3481,0.348,0.35,0.3499,0.3574,0.3518,0.3518,0.3517,0.3517,0,0.2833,0.2887,0.2935,0.2975,0.3035,0.3066,0.3124,0.3155,0.3198,0.3243,0.3261,0.3303,0.334,0.3387,0.3411,0.3472,0.3486,0.3502,0.3508,0.3501,0.3499,0.3521,0.3517,0.352,0.3519,0.3519,0.3518,0,0.2877,0.2912,0.2983,0.3041,0.3057,0.3098,0.3148,0.3187,0.3215,0.3272,0.3287,0.3331,0.3387,0.3421,0.3492,0.3508,0.3575,0.358,0.3558,0.3561,0.3591,0.3588,0.3684,0.3697,0.3632,0.3632,0.3633,0,0.2917,0.2959,0.3021,0.3052,0.3082,0.3133,0.3167,0.3199,0.3234,0.3293,0.3324,0.3381,0.3428,0.3516,0.3554,0.3608,0.3614,0.3644,0.3622,0.3613,0.3614,0.3611,0.3615,0.3647,0.3648,0.3649,0.3649,0,0.2985,0.3,0.3049,0.3103,0.3143,0.3188,0.3232,0.3257,0.3296,0.3334,0.3391,0.3427,0.3499,0.3554,0.3611,0.3641,0.3651,0.3655,0.3665,0.3659,0.3645,0.3652,0.3568,0.3653,0.3653,0.3652,0.3652,0.3652,0.3029,0.3066,0.3115,0.3168,0.3205,0.3245,0.3284,0.3316,0.3364,0.3425,0.344,0.3499,0.3547,0.3624,0.3655,0.3701,0.3697,0.3712,0.3716,0.3719,0.3719,0.3636,0.3712,0.3712,0.3712,0.3712,0.3711,0,0.3097,0.3129,0.3178,0.3239,0.328,0.3285,0.3334,0.3369,0.3421,0.3464,0.3509,0.3574,0.3628,0.3669,0.3724,0.3753,0.3759,0.3766,0.3765,0.3771,0.372,0.3706,0.376,0.376,0.376,0.376,0.376,0.376,0.3138,0.32,0.322,0.3301,0.3332,0.339,0.3417,0.3454,0.3489,0.356,0.3605,0.3631,0.3673,0.3731,0.378,0.3791,0.381,0.3816,0.3828,0.378,0.3775,0.377,0.3756,0.382,0.382,0.3875,0.3875,0.3876]}]]